User: anonymous   Login
Location: Lugrin
(46.4033°N, 6.6674°E)
Time: 04:21:50
(UTC+00:00)
Language:

Abrixas rocket - Orbit

View from above orbital plane
View from above orbital plane
View from above satellite
View from above satellite

Ground track
Ground track

The orbit data is extracted from the following two-line orbital elements,

1 25723U 99022C   20336.55168593 +.00064340 +00000-0 +29293-3 0  9992
2 25723 048.4081 161.7719 0001609 169.2408 190.8583 15.83115125204040
Epoch (UTC): 01 December 2020 13:14:25
Eccentricity: 0.0001609
inclination: 48.4081°
perigee height: 320 km
apogee height: 323 km
right ascension of ascending node: 161.7719°
argument of perigee: 169.2408°
revolutions per day: 15.83115125
mean anomaly at epoch: 190.8583°
orbit number at epoch: 20404

The dashed part of the orbit path shows where the satellite is in the earth's shadow,  

DLR